Weather History for Galveston, TX

Change the Weather History Date:

Friday, September 6, 2013

  Actual Average Record
Temperature  
Mean Temperature 82 °F 84 °F  
Max Temperature 88 °F 89 °F 94 °F (1912)
Min Temperature 76 °F 78 °F 64 °F (1974)
Degree Days  
Heating Degree Days 0 0  
Month to date heating degree days 0 0  
Since 1 July heating degree days 0 0  
Cooling Degree Days 17 19  
Month to date cooling degree days 117 114  
Year to date cooling degree days 2511 2508  
Growing Degree Days 32 (Base 50)    
Moisture  
Dew Point 76 °F    
Average Humidity 81    
Maximum Humidity 94    
Minimum Humidity 68    
Precipitation  
Precipitation 0.22 in 0.23 in 4.83 in (1877)
Month to date precipitation 0.44 1.36  
Year to date precipitation 24.67 32.54  
Snow  
Snow 0.00 in - - ()
Month to date snowfall 0.0  
Since 1 July snowfall 0.0  
Since 1 September snowfall 0.0  
Snow Depth 0.00 in    
Sea Level Pressure  
Sea Level Pressure 30.03 in    
Wind  
Wind Speed 8 mph (ENE)    
Max Wind Speed 17 mph    
Max Gust Speed 21 mph    
Visibility 10 miles    
Events Rain , Thunderstorm    
T = Trace of Precipitation, MM = Missing Value Source: NWS Daily Summary

Daily Weather History Graph

Daily Weather History Graph

Search for Another Location

Airport:

Trip Planner

Search our weather history database for the weather conditions in past years. The results will help you decide how hot, cold, wet, or windy it might be!

Date:

Astronomy

Sep. 06, 2013 Rise Set
Actual Time 6:59 AM CDT 7:35 PM CDT
Civil Twilight 6:35 AM CDT 7:59 PM CDT
Nautical Twilight 6:07 AM CDT 8:27 PM CDT
Astronomical Twilight 5:38 AM CDT 8:55 PM CDT
Moon 8:03 AM CDT (9/6) 8:11 PM CDT (9/6)
Length of Visible Light 13h 23m
Length of Day
12h 35m
New Moon, 2% of the Moon is Illuminated
Sep 6
New Moon
Sep 12
First Quarter
Sep 19
Full
Sep 26
Last Quarter
Oct 4
New

Hourly Weather History & Observations

Time (CDT) Temp. Heat Index Dew Point Humidity Pressure Visibility Wind Dir Wind Speed Gust Speed Precip Events Conditions
12:52 AM 82.0 °F 89.4 °F 75.9 °F 82% 30.04 in 10.0 mi ESE 4.6 mph - N/A   Clear
1:52 AM 81.0 °F 87.3 °F 75.9 °F 85% 30.03 in 10.0 mi SSE 3.5 mph - N/A   Partly Cloudy
2:52 AM 82.0 °F 89.4 °F 75.9 °F 82% 30.03 in 10.0 mi Calm Calm - N/A   Partly Cloudy
3:52 AM 81.0 °F 87.3 °F 75.9 °F 85% 30.03 in 10.0 mi NNE 4.6 mph - N/A   Clear
4:52 AM 82.0 °F 89.4 °F 75.9 °F 82% 30.02 in 10.0 mi NE 3.5 mph - N/A   Clear
5:52 AM 81.0 °F 88.6 °F 78.1 °F 91% 30.01 in 10.0 mi NNE 6.9 mph - N/A   Scattered Clouds
6:52 AM 80.1 °F 86.7 °F 79.0 °F 96% 30.03 in 10.0 mi NNE 6.9 mph - N/A   Scattered Clouds
7:52 AM 81.0 °F 88.6 °F 78.1 °F 91% 30.05 in 10.0 mi NNE 9.2 mph - N/A   Scattered Clouds
8:52 AM 81.0 °F 88.6 °F 78.1 °F 91% 30.06 in 10.0 mi NE 12.7 mph - N/A Thunderstorm Scattered Clouds
9:29 AM 80.6 °F 88.1 °F 78.8 °F 94% 30.06 in 10.0 mi NE 13.8 mph - N/A   Scattered Clouds
9:38 AM 80.6 °F 87.1 °F 77.0 °F 89% 30.06 in 10.0 mi NE 11.5 mph - N/A Thunderstorm Scattered Clouds
9:52 AM 80.1 °F 85.1 °F 75.0 °F 85% 30.07 in 10.0 mi NE 11.5 mph - N/A   Scattered Clouds
10:50 AM 82.4 °F 89.5 °F 75.2 °F 79% 30.09 in 10.0 mi ENE 6.9 mph - N/A Thunderstorm Thunderstorm
10:52 AM 82.9 °F 90.8 °F 75.9 °F 79% 30.09 in 10.0 mi NE 8.1 mph - N/A Thunderstorm Thunderstorm
11:35 AM 77.0 °F - 75.2 °F 94% 30.07 in 10.0 mi NE 8.1 mph - 0.22 in Rain Light Rain
11:52 AM 79.0 °F - 75.0 °F 88% 30.08 in 10.0 mi ENE 6.9 mph - 0.22 in   Mostly Cloudy
12:52 PM 82.9 °F 91.8 °F 77.0 °F 82% 30.06 in 10.0 mi NE 8.1 mph - N/A   Partly Cloudy
1:52 PM 87.1 °F 99.8 °F 78.1 °F 74% 30.04 in 10.0 mi East 11.5 mph - N/A   Partly Cloudy
2:52 PM 87.1 °F 97.3 °F 75.9 °F 69% 30.02 in 10.0 mi East 9.2 mph - N/A   Mostly Cloudy
3:52 PM 87.1 °F 97.3 °F 75.9 °F 69% 29.99 in 10.0 mi ESE 11.5 mph - N/A   Clear
4:52 PM 86.0 °F 96.9 °F 77.0 °F 74% 29.99 in 10.0 mi ESE 12.7 mph - N/A   Partly Cloudy
5:52 PM 84.9 °F 95.3 °F 77.0 °F 77% 29.98 in 10.0 mi ESE 11.5 mph - N/A   Partly Cloudy
6:52 PM 82.9 °F 90.8 °F 75.9 °F 79% 29.98 in 10.0 mi ESE 10.4 mph - N/A   Clear
7:52 PM 82.9 °F 90.2 °F 75.0 °F 77% 30.00 in 10.0 mi ESE 9.2 mph - N/A   Clear
8:52 PM 82.0 °F 89.4 °F 75.9 °F 82% 29.99 in 10.0 mi ESE 8.1 mph - N/A   Clear
9:52 PM 81.0 °F 87.3 °F 75.9 °F 85% 29.99 in 10.0 mi ESE 5.8 mph - N/A   Clear
10:52 PM 82.0 °F 88.6 °F 75.0 °F 79% 29.99 in 10.0 mi SE 10.4 mph - N/A   Partly Cloudy
11:52 PM 82.0 °F 88.6 °F 75.0 °F 79% 29.99 in 10.0 mi ESE 9.2 mph - N/A   Clear